Theta_e
290 288 288 288 286 285 285 286 285 284 284 285 285 286 287 287 287 287 287 287 288 288 288 288 288 288 288 288 287 286 286 286 286 286 286 285 285 285 285 285 284 284 284 284 283 282 281 281 281 281 280 280 279 279 279 278 278 278 277 277 277 277
288 287 287 287 287 287 286 284 283 282 283 283 284 284 284 284 285 285 286 287 287 287 286 287 288 288 288 288 287 286 286 286 285 285 285 285 285 285 285 285 284 284 284 284 283 282 281 281 281 280 280 280 279 279 279 278 278 278 277 277 277 277
287 287 287 287 287 287 287 287 286 284 283 282 283 284 284 283 284 285 285 285 285 285 286 286 286 286 287 286 287 286 286 285 285 285 286 284 284 285 284 284 284 284 284 283 283 282 282 281 281 280 280 280 279 279 279 278 278 277 277 277 276 276
286 286 286 287 287 287 287 287 287 286 285 284 283 283 282 283 284 284 284 284 284 284 286 286 285 285 285 286 286 286 286 285 285 286 285 285 285 284 285 284 284 284 284 283 283 283 282 281 281 280 280 280 279 279 279 278 278 277 277 276 276 276
285 285 285 285 286 286 287 287 287 287 287 286 285 284 284 284 284 283 284 284 284 285 285 285 285 285 285 285 286 285 286 286 285 286 286 285 284 284 284 284 284 284 283 283 283 282 282 281 281 281 280 280 279 279 278 278 278 277 277 276 276 276
285 285 285 285 285 285 286 287 287 288 288 288 287 286 286 285 285 284 284 284 284 284 284 285 285 285 285 285 286 286 286 286 286 286 286 285 285 284 284 284 284 284 283 283 282 282 282 281 281 281 280 280 279 279 278 278 277 277 277 276 276 276
284 284 284 284 285 285 286 286 287 287 288 288 289 288 288 287 286 285 285 284 284 285 285 285 285 285 286 286 286 286 287 287 287 286 285 285 284 284 283 284 284 283 283 283 282 282 282 281 281 280 280 280 280 279 278 278 277 277 277 276 276 277
283 284 283 284 284 285 285 286 286 287 287 288 288 288 289 289 288 286 286 286 286 286 285 286 286 286 286 286 287 287 287 287 287 286 286 285 284 284 284 284 283 283 283 283 283 282 282 281 281 280 280 279 279 279 278 277 277 277 277 276 276 276
282 283 283 283 283 284 284 284 285 286 287 287 287 288 288 288 288 287 287 286 285 285 285 285 286 286 286 286 287 287 287 287 287 286 286 285 285 284 283 283 283 283 283 283 283 282 282 281 281 280 280 279 279 278 278 277 277 276 276 276 276 276
282 282 282 283 283 284 284 284 284 285 285 286 286 287 287 287 287 286 286 286 286 286 286 286 286 286 286 287 287 287 286 286 286 286 286 285 284 284 284 283 283 283 283 283 282 282 282 281 280 280 279 279 278 278 277 277 277 276 276 276 275 275
281 282 282 282 282 283 283 284 284 284 284 285 285 286 286 286 285 285 285 285 285 285 286 286 286 286 285 286 286 286 286 286 286 286 285 285 284 284 284 284 283 283 282 282 282 282 281 281 280 280 279 278 278 278 278 277 277 276 275 275 275 274
282 282 282 282 282 282 283 283 284 284 284 284 285 285 286 286 285 284 284 284 285 285 285 285 285 285 285 285 285 285 285 285 285 285 285 285 284 284 284 283 283 282 282 282 282 282 281 281 281 281 283 282 279 278 277 277 276 276 275 275 274 274
282 282 282 282 283 283 283 283 283 283 283 284 284 284 285 285 284 284 284 284 284 284 285 284 284 285 284 285 285 285 285 285 285 285 284 284 284 283 283 282 282 282 282 282 282 281 281 281 281 283 285 285 284 279 277 276 276 275 275 274 273 273
282 282 282 283 283 283 283 283 283 283 283 284 284 284 285 284 284 283 283 283 283 284 284 284 283 283 284 284 284 284 284 284 284 284 283 283 283 283 282 282 282 282 282 282 282 281 281 281 283 284 285 285 285 282 278 277 276 275 275 274 273 273
283 283 283 283 283 283 284 284 284 283 284 284 284 285 284 284 283 283 283 283 283 283 283 283 282 282 282 283 283 283 283 282 283 283 282 282 283 282 281 282 282 282 282 282 281 281 281 280 283 285 285 285 285 284 280 277 276 275 275 274 273 273
283 283 283 283 283 284 284 284 284 284 284 285 285 284 284 283 283 283 283 283 283 282 282 282 282 281 282 282 282 282 281 281 282 282 282 282 282 282 282 282 282 282 281 281 281 281 281 280 283 285 285 285 286 285 282 277 276 275 275 274 273 273
282 283 282 282 283 284 284 283 284 284 284 285 285 284 284 284 283 283 283 283 283 282 282 281 281 281 281 281 281 281 281 281 282 282 282 282 282 282 282 282 281 281 281 281 280 280 280 280 283 285 285 286 286 286 283 276 275 274 274 274 273 273
282 282 282 283 283 283 283 283 283 283 283 284 284 284 284 284 283 283 284 283 283 282 282 281 280 280 280 280 280 280 281 281 281 282 282 281 282 282 282 281 281 281 280 280 280 279 279 279 283 284 285 286 286 286 281 276 274 273 273 273 273 272
282 282 282 282 282 282 282 283 283 283 283 283 283 283 283 283 282 283 283 283 283 282 282 281 280 279 279 280 280 280 280 281 281 281 281 280 280 281 280 280 280 280 280 280 279 279 278 277 281 284 285 286 286 285 278 274 273 273 272 272 272 272
281 281 282 281 282 282 282 282 282 282 282 282 282 281 281 281 281 282 283 282 283 282 282 281 280 279 278 278 278 279 280 280 280 280 280 279 279 279 279 279 279 278 278 278 278 278 277 276 279 283 285 285 286 284 276 274 273 272 271 271 272 272
281 281 281 281 281 281 282 281 281 281 280 281 280 280 280 280 281 282 282 282 283 283 282 282 281 280 279 278 279 278 277 277 278 279 277 277 278 278 278 277 277 276 276 276 277 278 277 276 277 283 284 285 286 283 275 274 272 271 271 271 271 272
280 280 280 280 280 281 281 281 280 280 280 279 279 279 279 280 280 281 282 282 282 283 283 283 281 281 280 279 279 278 277 276 275 274 275 274 274 274 274 274 274 274 274 274 275 275 276 275 275 279 284 285 286 284 275 273 272 271 271 271 272 272
279 279 279 279 280 280 279 279 279 278 278 278 278 278 279 280 280 280 280 281 281 282 282 282 282 281 280 280 278 278 277 276 275 275 273 273 272 270 270 271 272 272 272 272 273 273 275 274 274 276 283 285 286 285 278 273 273 273 273 272 272 272
278 278 279 279 279 278 278 278 277 277 277 277 277 278 279 280 279 279 279 279 280 281 281 282 282 282 280 279 278 277 277 277 275 275 274 273 273 272 272 271 271 270 270 270 272 272 273 275 276 274 281 284 285 286 280 275 274 274 273 273 272 273
276 277 277 278 277 277 277 277 276 275 276 275 276 278 279 278 278 277 277 278 278 279 280 281 281 281 281 279 278 277 277 277 275 274 274 273 273 272 272 272 272 271 270 269 270 271 272 273 274 277 277 282 285 286 282 279 277 278 275 273 272 273
274 275 275 275 275 276 276 275 274 274 274 274 276 277 277 276 275 275 275 276 277 277 277 278 279 280 280 280 279 277 276 276 275 274 273 273 273 273 272 272 271 271 270 270 269 270 271 272 272 276 278 279 284 285 284 281 279 280 275 275 274 274
272 273 272 273 273 273 274 274 273 273 272 274 275 274 273 272 272 273 273 274 274 274 275 276 277 278 279 279 278 277 277 276 275 273 273 273 273 273 272 272 272 271 271 271 270 270 271 271 271 272 276 279 281 285 285 282 281 281 279 275 274 274
270 270 270 271 271 271 272 272 272 271 272 273 273 272 271 270 270 270 270 270 271 272 272 273 274 275 277 278 278 277 277 277 276 274 274 273 272 273 273 273 272 271 271 271 271 271 271 271 271 272 274 277 279 282 284 284 281 281 280 277 275 276
269 269 269 269 270 270 269 269 270 271 271 271 270 270 269 268 268 268 267 267 268 269 270 270 271 272 274 275 277 277 276 276 276 275 274 273 272 272 272 273 272 272 271 271 272 271 270 270 271 272 272 274 276 278 281 283 280 281 280 276 275 276
267 267 268 268 269 269 268 268 268 268 268 268 268 267 266 266 266 265 265 265 266 267 267 268 270 271 272 273 275 276 276 276 275 275 274 274 273 273 272 272 272 272 272 272 272 271 269 269 270 271 271 273 275 277 279 281 279 278 277 274 274 274
267 267 266 267 267 267 266 266 266 266 266 266 265 264 263 263 264 264 263 264 264 265 267 268 269 269 271 272 273 275 276 276 276 275 275 276 276 275 274 274 274 274 274 273 273 271 269 269 269 270 274 274 277 277 278 280 278 278 276 275 277 274
265 265 265 265 266 265 264 264 264 264 264 263 263 262 261 261 261 261 261 262 263 264 265 266 267 268 270 270 272 273 274 276 279 278 276 276 278 279 280 279 276 275 275 274 274 273 271 270 271 275 277 277 278 280 281 282 281 280 276 277 279 275
265 264 263 264 264 263 263 262 262 262 262 262 261 261 260 260 260 260 261 262 262 264 265 265 266 266 267 268 269 270 271 272 275 279 281 280 279 279 280 281 281 280 279 275 273 274 277 276 275 276 277 278 279 280 281 282 282 281 279 280 276 272
262 262 262 262 262 261 261 260 260 260 260 260 260 260 259 259 259 259 260 260 261 262 262 263 263 264 264 265 266 267 268 270 271 273 277 280 280 281 280 280 281 281 280 280 277 274 273 276 277 277 277 278 279 280 281 282 282 281 280 280 278 270
261 260 260 260 259 259 259 259 259 259 259 259 259 259 259 259 259 258 259 259 260 260 261 262 262 263 264 264 266 267 269 270 271 271 271 274 278 280 281 280 280 280 281 281 280 279 276 276 277 278 278 278 279 280 281 282 282 281 281 280 273 269
259 258 258 258 258 258 258 257 258 258 258 258 258 258 258 258 258 258 259 259 259 260 260 261 262 263 264 266 267 268 269 270 271 271 272 271 272 273 277 280 281 280 280 280 281 280 279 278 278 278 278 279 279 280 281 281 280 281 281 278 271 269
257 257 257 257 257 257 257 257 257 258 258 258 258 258 258 258 258 258 260 261 262 261 262 263 263 264 265 266 266 267 268 269 270 271 271 271 271 271 271 272 275 278 280 278 279 280 280 279 278 278 279 279 279 280 281 282 278 276 276 275 271 269
256 256 256 256 256 256 256 256 257 258 258 258 258 258 257 258 258 259 259 260 261 261 262 263 263 264 264 264 265 265 267 269 271 271 271 271 271 271 271 272 273 274 277 280 280 280 280 280 279 279 279 279 280 280 281 277 275 275 274 271 269 268
Wind_Speed
12 11 11 12 10 7 6 7 8 5 5 6 5 7 6 5 5 6 7 8 8 8 9 10 11 10 10 9 6 6 9 10 11 12 12 8 10 11 12 12 13 13 13 13 13 12 13 12 12 12 12 12 11 10 10 8 9 9 9 8 8 7
16 16 17 15 13 10 6 3 2 3 4 4 5 5 5 5 6 5 8 9 8 8 6 8 9 9 9 7 7 8 10 11 9 9 8 12 9 11 12 13 14 15 15 14 14 14 13 13 12 13 12 12 11 11 10 9 10 10 10 8 7 7
18 17 14 12 10 10 11 12 11 8 5 4 4 6 6 5 5 6 7 5 6 5 9 8 7 9 7 7 8 9 9 8 9 9 9 4 11 11 13 14 15 15 15 14 14 15 14 14 14 12 12 12 12 11 11 10 11 12 9 8 9 7
16 15 15 15 15 15 15 14 13 13 11 7 5 4 5 5 6 5 6 5 5 7 8 9 6 7 7 9 10 11 10 9 10 9 7 12 10 9 13 13 13 13 14 14 15 14 14 14 15 14 13 14 14 13 10 11 13 12 11 10 11 10
11 10 13 15 16 16 16 14 13 12 11 8 6 4 7 6 7 5 6 6 7 8 8 7 8 7 8 10 10 11 12 10 10 8 12 12 10 10 10 11 12 13 14 14 14 14 14 15 15 14 14 15 16 16 14 13 14 14 13 13 13 12
11 14 16 15 15 15 15 14 13 13 12 11 8 7 8 6 6 6 6 6 8 8 7 9 8 8 10 11 12 13 13 12 11 11 13 12 9 11 10 9 11 11 14 15 14 15 15 16 15 15 16 16 16 16 16 14 14 13 13 13 13 12
15 13 12 12 13 13 14 15 14 14 14 14 14 13 10 7 6 6 6 7 9 9 9 10 9 10 11 13 12 15 14 14 14 12 13 11 11 11 10 11 11 12 13 14 16 17 17 16 16 16 15 15 15 15 14 15 14 14 14 14 13 12
10 12 13 12 12 12 12 13 13 13 13 13 13 14 15 14 11 7 7 7 9 9 10 10 9 11 13 14 14 15 14 14 13 12 11 12 13 11 12 14 13 13 14 14 15 16 16 15 15 17 17 17 15 15 14 14 14 14 14 13 13 13
14 12 12 11 11 11 10 11 12 13 13 14 14 13 12 13 14 15 15 11 7 9 9 9 11 12 12 13 14 13 12 12 12 12 13 11 13 14 14 13 14 14 15 16 14 15 15 16 16 16 15 15 15 15 15 14 14 14 13 13 14 14
10 11 11 11 11 11 11 9 10 10 11 12 12 13 12 12 12 12 13 14 15 13 11 9 9 10 12 12 12 12 12 11 11 12 12 10 13 14 14 15 16 14 13 15 14 14 12 14 14 14 14 14 15 15 16 16 15 15 14 13 13 13
8 10 11 11 11 12 12 12 13 12 11 11 11 11 12 11 11 11 11 11 11 12 13 13 10 9 10 11 11 11 11 11 12 11 11 11 13 12 13 12 12 12 13 12 13 14 13 14 15 14 15 16 16 16 16 17 17 16 15 13 13 12
10 10 10 11 11 12 12 12 12 12 13 13 12 12 11 11 11 11 11 12 12 12 12 12 11 11 10 10 10 11 11 11 11 11 11 13 13 12 10 10 11 13 14 14 14 14 13 14 12 13 20 19 16 16 14 13 14 15 15 15 14 13
10 11 13 13 13 12 11 10 9 10 10 12 13 14 13 11 12 12 11 13 13 13 13 13 12 11 11 11 10 9 9 11 10 10 11 11 10 11 11 11 13 15 14 14 14 14 13 13 11 16 23 24 24 17 15 14 14 13 14 14 15 15
11 12 13 13 13 13 12 12 11 10 12 11 12 12 11 12 12 11 10 10 11 12 13 13 13 13 12 10 11 10 10 9 8 10 10 10 10 10 9 12 15 13 12 12 13 14 14 13 12 20 23 25 25 20 15 13 13 13 14 14 15 14
11 12 12 12 12 12 12 11 11 11 11 12 10 10 10 10 10 10 10 9 10 11 11 12 13 12 12 11 10 9 8 8 8 9 9 11 11 8 11 12 11 13 13 13 15 15 14 13 15 22 24 25 25 25 19 12 13 14 14 15 15 15
9 10 10 11 11 9 9 9 9 10 9 9 9 9 9 10 12 11 11 10 10 11 11 11 11 11 12 11 11 9 8 8 10 10 9 8 6 9 11 11 13 12 12 14 15 14 13 14 15 24 25 26 27 26 21 13 14 13 14 15 15 13
10 10 10 10 10 10 10 10 9 10 10 10 11 10 9 9 9 8 8 9 10 10 11 12 12 12 12 11 9 9 9 9 9 9 8 8 10 11 12 12 13 13 12 12 12 12 12 12 17 23 25 25 26 26 22 12 12 11 11 11 12 13
10 9 9 8 9 9 9 10 10 10 11 10 10 12 11 11 11 11 11 11 11 11 11 11 12 12 12 12 11 10 10 9 9 9 8 7 8 8 7 8 8 11 12 12 12 13 13 10 18 22 24 26 25 26 15 12 12 12 11 11 12 11
8 8 7 8 8 8 9 9 9 10 11 10 10 10 11 11 12 13 14 13 13 12 11 11 11 12 11 11 11 12 11 11 10 9 6 7 8 8 9 10 10 10 11 12 12 13 12 9 16 23 24 26 27 20 12 12 11 11 12 12 11 12
7 7 7 9 8 8 8 8 9 10 10 10 10 10 11 11 12 12 12 13 13 13 12 11 11 11 11 10 11 11 11 9 8 8 6 8 9 9 10 9 9 8 9 11 12 13 12 10 14 24 24 26 28 19 14 12 13 12 11 10 11 10
7 8 7 8 9 9 7 8 9 9 9 9 10 9 10 10 11 11 12 13 13 12 11 11 11 11 11 11 11 10 10 10 9 8 5 7 7 9 7 6 7 7 7 8 10 9 12 9 12 22 24 26 27 19 12 12 11 12 12 11 10 9
6 7 8 9 10 8 7 6 8 9 10 10 9 9 10 10 10 10 11 12 12 12 12 11 11 11 11 12 12 10 9 8 8 7 7 7 7 8 7 6 7 8 8 7 8 9 10 10 9 15 24 25 28 24 13 12 13 13 13 12 12 12
7 8 9 8 7 7 6 6 7 9 9 9 10 11 10 10 10 11 12 12 12 12 12 11 10 12 12 10 11 10 9 7 7 7 6 8 7 6 6 7 7 7 6 6 6 7 8 8 10 13 23 26 28 28 20 13 14 12 12 12 12 12
8 9 9 7 7 6 6 6 8 10 10 9 11 12 10 10 10 11 12 13 13 13 13 12 12 11 10 10 9 11 11 8 6 6 6 6 6 7 8 6 6 6 6 5 6 7 8 8 13 10 18 25 27 28 24 14 12 12 12 12 12 11
9 10 10 9 7 6 7 7 10 11 11 12 13 11 9 9 11 12 14 14 14 14 14 13 14 13 10 10 10 10 12 9 7 7 5 6 6 8 8 8 7 6 7 6 6 6 7 8 9 17 14 21 26 30 25 23 14 20 13 13 13 14
8 10 9 9 8 8 8 7 10 12 13 15 12 9 9 10 12 13 15 15 14 14 15 15 14 13 11 11 11 10 11 10 8 7 6 7 7 7 8 7 6 6 7 8 7 7 7 7 7 13 20 17 26 27 28 27 22 22 13 11 10 8
10 10 11 11 10 9 8 6 9 13 17 14 8 9 10 12 14 14 15 16 16 16 15 15 14 14 13 12 10 11 11 11 8 8 7 7 8 8 9 8 7 8 9 8 9 8 8 8 8 8 15 22 20 27 28 28 26 24 21 13 8 7
8 11 14 15 13 10 7 7 7 13 16 12 9 9 11 13 14 14 15 16 16 17 16 17 17 16 15 14 11 11 11 11 9 9 8 7 9 9 9 9 8 9 9 9 9 9 9 9 8 9 9 13 16 18 27 28 28 28 25 18 12 16
11 13 15 16 15 10 7 8 9 11 12 12 9 10 12 13 15 16 17 17 16 16 16 17 15 14 14 14 12 10 10 10 9 9 9 9 9 9 9 10 9 9 10 11 10 8 8 11 10 9 9 9 10 11 13 16 18 25 24 16 12 15
12 14 15 16 16 12 10 10 11 12 11 10 10 10 11 14 15 16 17 19 16 15 15 15 18 18 14 13 11 11 11 10 10 11 11 11 11 11 11 10 11 12 11 11 9 8 9 11 10 10 11 10 10 11 12 11 12 14 12 12 11 11
13 14 14 16 15 12 12 12 12 13 13 11 9 9 12 14 16 17 19 18 16 15 15 14 13 13 13 13 13 12 12 12 11 12 12 13 11 12 12 11 12 12 11 10 10 10 10 10 12 14 12 14 17 15 13 13 12 12 11 15 20 13
13 14 15 16 13 14 12 14 12 12 9 9 9 11 13 16 17 17 18 16 14 14 13 12 12 12 13 12 13 13 13 14 19 16 13 13 15 21 21 16 12 11 9 10 11 11 14 15 14 15 23 23 23 25 24 16 16 17 15 22 31 19
14 13 15 15 13 13 15 14 15 13 11 8 9 10 14 15 15 15 16 15 14 14 14 12 12 13 12 13 13 14 15 14 13 21 27 26 19 17 21 25 26 21 16 13 10 11 20 13 11 21 24 26 25 25 27 23 20 22 25 29 21 15
15 15 18 15 14 15 16 16 17 14 11 10 10 11 12 14 14 15 16 16 15 15 14 13 12 13 13 13 13 13 14 14 15 13 16 23 25 27 25 24 26 27 26 23 18 10 9 18 21 22 25 26 27 27 28 26 25 25 29 30 25 15
15 17 13 17 15 18 17 19 19 15 11 11 11 10 14 15 16 17 17 16 16 15 16 15 14 12 10 12 14 13 11 12 13 14 13 10 17 23 25 25 24 25 26 26 25 23 17 16 19 23 25 26 27 28 28 27 27 29 32 32 18 14
15 15 18 15 20 18 21 20 19 13 13 12 14 14 15 16 16 17 15 15 14 14 13 13 12 13 13 11 11 12 11 12 11 13 12 12 8 9 15 23 26 25 24 26 26 24 23 22 24 25 26 27 27 28 28 27 21 29 35 27 15 13
20 20 20 22 22 21 21 23 20 16 14 15 14 16 16 16 15 15 17 28 24 15 12 12 14 13 12 14 13 14 14 14 13 13 13 12 11 10 10 8 11 19 24 19 19 23 25 24 25 26 25 27 27 28 28 28 16 18 19 18 13 13
20 19 19 17 18 18 21 20 18 14 15 14 17 16 16 15 14 13 14 14 16 14 13 13 13 13 13 14 15 15 15 14 11 11 11 11 11 11 10 10 9 9 14 26 24 25 24 25 25 24 26 26 28 29 30 18 15 15 14 13 11 11
Wind_Direction
8 20 14 358 341 321 309 308 316 310 282 274 270 265 271 262 233 206 210 207 213 219 228 227 227 225 225 224 217 206 214 211 207 203 203 181 183 184 181 182 185 187 191 191 193 188 191 189 190 186 186 186 191 191 193 183 177 186 189 187 178 177
16 16 6 358 349 342 330 285 226 241 258 291 293 296 301 289 271 256 228 216 212 218 218 228 229 233 233 230 222 217 213 213 213 214 202 203 188 192 181 186 188 188 189 192 190 189 187 189 189 186 187 185 193 189 189 185 179 187 191 184 180 171
12 10 6 360 358 359 360 1 355 344 349 344 332 318 312 306 302 301 298 308 267 243 233 229 222 231 226 231 226 230 229 224 216 213 215 194 205 189 190 193 191 189 190 189 191 190 188 187 187 187 186 188 192 191 189 180 184 188 190 175 181 180
8 6 6 6 8 9 8 3 2 360 352 344 335 332 300 283 271 251 261 264 261 256 250 245 238 229 219 226 224 226 224 218 217 214 199 210 213 199 205 196 192 191 189 189 192 191 189 189 190 186 186 189 190 191 186 185 184 189 186 178 186 185
10 8 11 10 7 3 5 8 13 5 351 339 330 316 293 275 274 270 263 255 249 247 247 248 243 234 227 227 227 229 226 222 220 207 212 217 206 202 208 206 198 193 191 192 190 190 191 191 191 189 188 192 191 190 190 187 186 188 186 187 191 184
9 15 12 8 6 3 2 2 5 8 8 1 347 335 313 302 286 276 263 254 251 250 249 243 239 232 231 229 228 228 224 220 219 210 216 215 201 205 205 202 207 202 195 194 191 191 193 193 192 190 193 192 190 191 191 186 188 190 191 190 187 183
15 9 6 6 4 4 3 3 3 5 2 0 0 354 342 322 302 294 278 264 263 259 252 252 243 239 235 234 233 231 228 222 222 214 216 208 209 206 196 202 198 203 205 200 196 194 194 195 191 191 192 194 193 193 189 188 188 190 191 190 188 185
8 10 6 4 5 5 2 1 0 0 0 359 357 355 351 349 345 325 294 278 270 265 256 256 250 245 242 239 238 235 232 229 226 222 218 209 212 203 202 201 198 199 203 209 205 199 196 191 191 194 194 191 189 190 190 188 189 191 190 188 187 186
9 5 4 1 360 3 2 0 359 358 356 355 357 355 352 348 347 344 340 328 293 278 272 262 254 247 245 242 240 239 237 234 230 223 222 210 212 208 206 203 202 202 202 204 205 206 197 193 194 194 193 191 190 188 187 187 190 191 190 191 187 185
0 1 0 358 358 355 359 2 2 358 354 352 350 349 351 351 348 346 341 336 332 324 305 281 266 260 255 253 249 244 240 236 232 227 224 212 215 214 210 206 204 205 202 205 203 206 200 197 196 194 192 191 190 188 190 189 190 190 191 190 189 186
357 355 354 353 354 358 357 356 355 355 354 354 349 349 349 347 346 347 345 341 339 331 321 312 298 280 268 259 257 252 244 237 233 230 223 216 218 215 215 210 207 206 208 208 205 202 199 200 200 196 191 189 190 192 192 190 190 188 187 186 188 189
351 353 351 351 355 353 354 355 353 352 350 349 348 345 344 346 347 346 346 350 348 342 334 322 311 298 285 277 263 254 247 241 235 229 225 222 218 217 212 206 206 208 209 207 208 205 203 207 206 196 189 186 187 189 192 191 190 187 186 184 184 188
345 347 350 350 350 349 349 349 346 346 349 348 345 344 341 346 344 347 348 347 346 341 340 337 328 318 303 286 275 268 257 246 239 233 231 229 220 215 210 203 207 209 208 208 207 207 209 209 207 195 194 192 187 183 186 187 188 189 189 189 185 186
342 346 345 344 343 344 345 345 344 346 348 346 343 339 336 340 341 339 340 339 339 342 341 340 334 327 315 303 287 275 264 257 247 239 234 229 224 219 209 212 213 209 206 206 208 211 212 211 200 196 197 196 192 186 185 186 186 186 191 191 191 188
336 335 336 337 338 338 337 338 339 343 341 339 335 334 335 334 330 328 330 335 338 340 341 339 338 330 322 312 299 288 279 264 251 244 237 229 224 214 215 220 212 213 209 204 208 213 212 213 199 198 196 195 194 189 182 190 188 187 193 191 192 189
324 325 326 326 325 324 323 332 331 331 334 328 328 331 330 331 329 330 329 335 339 340 340 340 337 331 323 315 306 294 279 265 254 245 237 236 223 218 222 219 216 215 210 210 210 212 212 211 199 197 196 195 194 189 184 190 187 192 194 194 192 189
311 315 321 324 323 323 327 329 334 333 332 334 331 329 329 326 322 320 321 329 331 337 340 339 336 331 326 320 309 295 281 266 264 258 244 229 222 220 219 216 217 216 213 212 210 213 213 212 198 198 196 194 193 191 184 186 186 189 194 194 193 193
305 306 308 309 311 313 321 321 328 334 328 330 330 328 330 329 328 327 330 334 337 339 338 335 330 327 324 322 317 306 290 278 264 260 251 240 238 234 232 232 224 220 216 213 209 212 215 207 197 198 197 195 194 189 183 184 184 186 187 189 190 190
290 291 294 300 302 312 315 319 327 328 326 327 326 328 327 330 330 331 334 334 334 333 331 330 325 322 320 319 317 309 300 291 278 265 254 245 240 232 226 226 218 217 215 211 210 211 213 204 197 197 196 195 192 186 182 179 181 186 187 189 186 187
285 286 295 300 301 303 310 316 325 322 319 319 321 324 323 325 324 326 329 327 327 326 325 324 324 319 317 315 311 303 298 290 282 273 252 239 239 234 232 224 225 222 217 214 212 209 208 204 198 198 196 194 193 183 177 178 183 187 188 187 184 183
278 287 294 293 296 302 310 314 318 317 310 312 315 315 314 313 317 324 326 323 320 319 318 318 318 317 313 309 302 296 291 285 274 267 246 242 242 241 234 222 225 223 218 220 215 207 207 202 200 200 199 196 194 186 172 175 183 183 189 183 182 183
286 289 287 287 286 294 302 308 310 304 303 305 309 307 304 306 312 318 317 314 314 313 313 314 314 312 311 306 299 292 280 275 276 261 243 242 233 238 223 217 219 218 219 210 210 211 207 199 199 205 202 200 200 191 170 179 182 190 186 183 182 177
272 279 281 277 280 289 294 303 303 297 296 302 302 295 296 303 313 316 313 311 308 308 307 307 307 305 304 297 292 288 283 270 260 258 246 246 244 237 230 220 219 216 219 205 211 209 211 200 195 207 205 204 203 196 173 186 190 186 181 182 178 185
284 284 282 277 282 288 296 299 294 291 294 295 288 288 300 309 315 316 313 308 306 303 301 304 305 303 297 295 291 290 283 275 258 249 244 241 237 236 236 228 219 216 215 210 207 209 212 200 199 202 211 210 208 205 180 182 192 182 178 181 188 187
289 284 281 286 288 293 296 299 293 291 293 286 283 297 305 315 317 314 308 304 302 303 304 305 305 303 301 292 284 277 279 277 265 252 234 235 235 237 240 228 221 213 217 212 210 210 210 204 204 202 207 214 211 211 190 183 183 188 184 186 188 189
279 282 283 284 287 289 287 289 288 288 288 284 295 309 316 319 313 309 304 301 301 304 304 303 300 298 294 290 285 270 267 266 252 248 232 223 224 230 233 234 222 219 218 216 215 210 209 206 202 209 209 214 214 213 203 193 183 186 184 189 191 179
286 287 285 282 281 280 282 281 283 285 282 285 310 316 318 314 310 305 300 301 303 301 300 299 296 295 293 285 275 272 267 257 241 241 233 220 225 222 228 231 215 220 223 221 221 211 205 203 204 204 213 214 220 217 205 196 187 186 183 184 185 170
282 282 281 283 278 278 281 278 272 277 280 297 313 316 313 306 303 300 298 297 295 295 297 296 294 289 285 283 271 260 258 259 247 233 233 217 224 220 222 227 218 222 223 227 224 218 195 190 196 208 209 214 219 222 215 200 194 191 188 176 174 174
284 281 281 282 283 281 278 278 276 274 285 295 311 314 308 304 303 298 295 290 290 290 291 289 289 290 289 284 278 262 257 251 245 237 233 221 221 222 222 223 220 222 223 227 226 219 193 167 190 201 202 206 212 216 224 211 196 191 184 174 171 170
276 279 282 282 284 291 289 281 279 282 288 297 307 308 307 300 296 294 291 289 288 286 285 284 284 286 284 281 275 271 263 249 238 239 232 222 217 219 224 219 219 221 218 224 221 208 197 201 204 202 196 199 201 210 211 206 185 187 179 167 164 162
282 278 281 281 286 289 288 282 283 286 294 301 308 308 303 295 292 290 286 284 283 279 278 277 278 278 281 281 276 264 258 258 251 240 244 234 224 219 221 218 223 222 220 217 213 200 206 207 209 209 191 196 198 199 203 202 188 180 168 165 158 149
282 284 284 283 288 291 287 288 285 286 293 305 306 305 298 296 292 287 282 281 279 277 277 277 276 274 276 277 278 279 272 252 245 244 241 251 226 227 228 223 226 221 210 218 219 200 204 208 210 191 195 201 202 208 210 210 188 178 160 165 165 155
289 288 283 285 293 291 292 291 290 291 295 298 293 292 288 285 284 282 280 281 279 280 284 284 283 282 279 278 278 279 279 281 264 249 249 248 244 229 231 235 237 235 218 210 223 215 218 217 187 193 199 199 202 206 210 208 188 176 166 167 159 157
298 294 293 294 294 292 291 289 287 290 297 296 288 282 276 275 276 278 279 280 282 284 283 281 279 279 276 275 274 272 276 277 277 269 246 248 250 246 241 239 238 238 235 228 221 206 211 217 208 197 196 199 199 204 208 207 188 176 170 173 160 159
296 295 295 295 294 294 291 289 287 292 296 290 284 275 274 274 273 273 275 275 278 279 281 279 278 275 271 271 272 271 261 261 262 265 274 251 243 247 243 239 237 236 236 233 231 221 204 197 202 202 200 199 199 200 205 203 188 177 174 170 169 175
294 292 292 292 292 290 289 286 287 294 292 285 279 275 270 269 267 267 269 273 274 275 273 271 267 266 268 266 264 262 260 259 261 266 264 268 259 244 244 243 239 236 235 234 231 227 219 211 204 202 200 200 199 198 202 203 192 181 179 175 174 172
292 290 288 289 289 286 284 284 286 291 286 280 275 274 270 266 265 266 265 270 275 274 270 267 270 268 263 257 251 253 254 252 253 251 255 253 251 245 239 230 232 233 231 229 229 225 219 210 206 202 199 199 198 198 198 199 188 185 189 182 175 174
286 284 284 283 281 280 280 280 285 284 278 274 274 271 269 268 266 265 267 271 270 267 266 265 264 266 270 277 282 287 287 289 279 255 246 244 241 242 240 240 226 219 223 225 225 220 217 212 206 203 200 199 198 196 196 195 188 185 186 178 171 168